Location: Beccas
(43.4309°N, 0.1528°E)
Time: 23:48:14
(UTC+00:00)

Cosmos 1980 Rocket - Pass Details

Date: 15 October 2021
Orbit: 828 x 851 km, 71.0° (Epoch: 26 November)

Event Time Altitude Azimuth Distance (km) Brightness Sun altitude
Rises 19:13:08 0° 216° (SW) 3,375 5.7 -22.0°
Reaches altitude 10° 19:15:37 10° 220° (SW) 2,448 5.0 -22.4°
Maximum altitude 19:21:08 57° 299° (WNW) 992 2.8 -23.4°
Drops below altitude 10° 19:26:44 10° 18° (NNE) 2,479 4.6 -24.4°
Sets 19:29:15 0° 22° (NNE) 3,421 5.3 -24.9°
